Regional Weather Roundup
Issued by NWS

Home | Current Version | Previous Version | Text Only | Print | Product List | Glossary On
Versions: 1 2 3 4 5 6 7 8 9 10 11 12 13 14 15 16 17 18 19 20 21 22 23 24 25 26 27 28 29 30 31 32 33 34 35 36 37 38 39 40 41 42 43 44 45 46 47 48 49 50
000
ASUS43 KLMK 181602
RWRKY
KENTUCKY REGIONAL WEATHER ROUNDUP
NATIONAL WEATHER SERVICE LOUISVILLE KY
1100 AM EST THU DEC 18 2014

NOTE "FAIR" INDICATES FEW OR NO CLOUDS BELOW 12,000 FEET
WITH NO SIGNIFICANT WEATHER AND/OR OBSTRUCTIONS TO VISIBILITY.

KYZ001>023-026-027-061>063-070>075-181700-
WESTERN AND SOUTH CENTRAL KENTUCKY

CITY           SKY/WX    TMP DP  RH WIND       PRES   REMARKS
PADUCAH        CLOUDY    33  31  92 NE7       30.30S FOG     WCI  27
HENDERSON      CLOUDY    32  25  74 NW5       30.32S WCI  27
OWENSBORO      CLOUDY    32  26  78 N6        30.32R WCI  26
HOPKINSVILLE   NOT AVBL
BOWLING GREEN  MIX PCPN  34  27  75 CALM      30.29R
GLASGOW        NOT AVBL
$$

KYZ024-025-028>034-038-045-046-053-181700-
NORTH CENTRAL KENTUCKY

CITY           SKY/WX    TMP DP  RH WIND       PRES   REMARKS
LOUISVILLE/SDF CLOUDY    32  23  69 NE7       30.28F WCI  26
LOUISVILLE/LOU CLOUDY    31  23  72 N5        30.29S WCI  26
FORT KNOX      CLOUDY    30  24  77 NE3       30.25F
$$

KYZ035>037-039>044-047>052-055>060-089>105-181700-
NORTHEAST KENTUCKY

CITY           SKY/WX    TMP DP  RH WIND       PRES   REMARKS
LEXINGTON      CLOUDY    31  23  72 VRB5      30.25F WCI  26
COVINGTON      CLOUDY    28  18  66 CALM      30.26F
FRANKFORT      CLOUDY    30  22  72 CALM      30.28R
$$

KYZ054-064>069-076>088-106>120-181700-
SOUTHEAST KENTUCKY

CITY           SKY/WX    TMP DP  RH WIND       PRES   REMARKS
JACKSON        PTSUNNY   30  23  75 CALM      30.22S
LONDON         PTSUNNY   33  27  78 CALM      30.23R
SOMERSET       NOT AVBL
MIDDLESBORO    NOT AVBL
MONTICELLO     PTSUNNY   35  29  79 CALM      30.26F
$$



USA.gov is the U.S. government's official web portal to all federal, state and local government web resources and services.